| time (UTC) | temp C | wind direction | speed KPH | gust KPH | rain 1hr cm | rain 24hr cm | rain mn cm | humidity % | barometer mb |
| 20260507104517 | 13 | 305 | 0.0 | 0.0 | 0.00 | 0.00 | 0.00 | 82 | 1015.8 |
| 20260507103041 | 13 | 305 | 0.0 | 0.0 | 0.00 | 0.00 | 0.00 | 82 | 1015.9 |
| 20260507101547 | 13 | 305 | 0.0 | 0.0 | 0.00 | 0.00 | 0.00 | 82 | 1015.9 |
| 20260507100033 | 13 | 305 | 0.0 | 0.0 | 0.00 | 0.00 | 0.00 | 82 | 1016.0 |
| 20260507094555 | 13 | 304 | 0.0 | 0.0 | 0.00 | 0.00 | 0.00 | 82 | 1016.1 |
| 20260507093040 | 13 | 305 | 0.0 | 0.0 | 0.00 | 0.00 | 0.00 | 81 | 1016.3 |
| 20260507091528 | 13 | 304 | 0.0 | 0.0 | 0.00 | 0.00 | 0.00 | 81 | 1016.4 |
| 20260507090030 | 13 | 305 | 0.0 | 0.0 | 0.00 | 0.00 | 0.00 | 81 | 1016.5 |
| 20260507084512 | 14 | 304 | 0.0 | 0.0 | 0.00 | 0.00 | 0.00 | 81 | 1016.7 |
| 20260507083103 | 14 | 305 | 0.0 | 0.0 | 0.00 | 0.00 | 0.00 | 81 | 1016.9 |
| 20260507083002 | 14 | 304 | 0.0 | 0.0 | 0.00 | 0.00 | 0.00 | 81 | 1016.9 |
| 20260507081552 | 14 | 304 | 0.0 | 0.0 | 0.00 | 0.00 | 0.00 | 81 | 1016.9 |
| 20260507080017 | 14 | 304 | 0.0 | 0.0 | 0.00 | 0.00 | 0.00 | 81 | 1016.9 |
| 20260507074518 | 15 | 304 | 0.0 | 0.0 | 0.00 | 0.00 | 0.00 | 81 | 1017.0 |
| 20260507073100 | 15 | 304 | 0.0 | 0.0 | 0.00 | 0.00 | 0.00 | 81 | 1017.1 |
| 20260507071552 | 15 | 304 | 0.0 | 0.0 | 0.00 | 0.00 | 0.00 | 81 | 1017.1 |
| 20260507070023 | 15 | 305 | 0.0 | 1.6 | 0.00 | 0.00 | 0.00 | 81 | 1017.2 |
| 20260507064510 | 15 | 304 | 0.0 | 3.2 | 0.00 | 0.00 | 0.00 | 81 | 1017.4 |
| 20260507063038 | 15 | 305 | 1.6 | 6.4 | 0.00 | 0.00 | 0.00 | 80 | 1017.5 |
| 20260507061559 | 15 | 287 | 1.6 | 4.8 | 0.00 | 0.00 | 0.00 | 80 | 1017.9 |
| 20260507061502 | 15 | 287 | 1.6 | 4.8 | 0.00 | 0.00 | 0.00 | 80 | 1017.4 |
| 20260507060021 | 15 | 272 | 1.6 | 4.8 | 0.00 | 0.00 | 0.00 | 80 | 1017.4 |
| 20260507054550 | 15 | 272 | 1.6 | 3.2 | 0.00 | 0.00 | 0.00 | 79 | 1017.4 |
| 20260507053030 | 15 | 273 | 0.0 | 4.8 | 0.00 | 0.00 | 0.00 | 78 | 1017.5 |
| 20260507051521 | 15 | 273 | 1.6 | 6.4 | 0.00 | 0.00 | 0.00 | 78 | 1017.5 |
| 20260507050011 | 15 | 328 | 0.0 | 3.2 | 0.00 | 0.00 | 0.00 | 77 | 1017.4 |
| 20260507044514 | 15 | 328 | 0.0 | 6.4 | 0.00 | 0.00 | 0.00 | 77 | 1017.4 |
| 20260507043058 | 16 | 286 | 3.2 | 4.8 | 0.00 | 0.00 | 0.00 | 77 | 1017.2 |
| 20260507041546 | 16 | 293 | 1.6 | 9.7 | 0.00 | 0.00 | 0.00 | 77 | 1017.1 |
| 20260507040014 | 16 | 308 | 4.8 | 11.3 | 0.00 | 0.00 | 0.00 | 77 | 1017.0 |
| 20260507034559 | 16 | 295 | 4.8 | 11.3 | 0.00 | 0.00 | 0.00 | 76 | 1017.0 |
| 20260507033020 | 16 | 299 | 3.2 | 9.7 | 0.00 | 0.00 | 0.00 | 75 | 1016.7 |
| 20260507031606 | 16 | 298 | 4.8 | 14.5 | 0.00 | 0.00 | 0.00 | 72 | 1016.7 |
| 20260507031502 | 16 | 296 | 4.8 | 14.5 | 0.00 | 0.00 | 0.00 | 72 | 1016.6 |
| 20260507030031 | 17 | 308 | 3.2 | 12.9 | 0.00 | 0.00 | 0.00 | 71 | 1016.5 |
| 20260507024520 | 17 | 302 | 6.4 | 12.9 | 0.00 | 0.00 | 0.00 | 69 | 1016.4 |
| 20260507023010 | 17 | 306 | 3.2 | 11.3 | 0.00 | 0.00 | 0.00 | 67 | 1016.2 |
| 20260507021556 | 18 | 267 | 8.0 | 16.1 | 0.00 | 0.00 | 0.00 | 65 | 1016.2 |
| 20260507020100 | 18 | 284 | 4.8 | 17.7 | 0.00 | 0.00 | 0.00 | 63 | 1016.1 |
| 20260507014532 | 19 | 292 | 3.2 | 17.7 | 0.00 | 0.00 | 0.00 | 61 | 1016.1 |
| 20260507013057 | 19 | 267 | 8.0 | 17.7 | 0.00 | 0.00 | 0.00 | 60 | 1016.0 |
| 20260507011534 | 20 | 285 | 6.4 | 16.1 | 0.00 | 0.00 | 0.00 | 58 | 1016.0 |
| 20260507010052 | 20 | 301 | 4.8 | 14.5 | 0.00 | 0.00 | 0.00 | 59 | 1016.0 |
| 20260507004532 | 20 | 306 | 6.4 | 19.3 | 0.00 | 0.00 | 0.00 | 57 | 1015.8 |
| 20260507003026 | 20 | 288 | 6.4 | 16.1 | 0.00 | 0.00 | 0.00 | 58 | 1015.8 |
| 20260507001518 | 21 | 290 | 6.4 | 17.7 | 0.00 | 0.00 | 0.00 | 57 | 1015.7 |
| 20260507000008 | 20 | 290 | 4.8 | 17.7 | 0.00 | 0.00 | 0.00 | 59 | 1015.6 |
| 20260506234552 | 20 | 267 | 6.4 | 20.9 | 0.00 | 0.00 | 0.00 | 59 | 1015.6 |
| 20260506233052 | 20 | 261 | 9.7 | 20.9 | 0.00 | 0.00 | 0.00 | 59 | 1015.6 |
| 20260506231525 | 21 | 309 | 11.3 | 22.5 | 0.00 | 0.00 | 0.00 | 59 | 1015.6 |
| 20260506230023 | 21 | 283 | 9.7 | 25.7 | 0.00 | 0.00 | 0.00 | 59 | 1015.5 |
| 20260506224530 | 21 | 296 | 11.3 | 20.9 | 0.00 | 0.00 | 0.00 | 58 | 1015.6 |
| 20260506223015 | 21 | 232 | 8.0 | 20.9 | 0.00 | 0.00 | 0.00 | 56 | 1015.9 |
| 20260506221533 | 21 | 256 | 11.3 | 27.4 | 0.00 | 0.00 | 0.00 | 57 | 1015.9 |
| 20260506220004 | 21 | 261 | 9.7 | 25.7 | 0.00 | 0.00 | 0.00 | 57 | 1016.0 |
| 20260506214548 | 22 | 245 | 9.7 | 19.3 | 0.00 | 0.00 | 0.00 | 56 | 1016.1 |
| 20260506213020 | 21 | 253 | 8.0 | 25.7 | 0.00 | 0.00 | 0.00 | 58 | 1016.3 |
| 20260506211536 | 21 | 222 | 12.9 | 22.5 | 0.00 | 0.00 | 0.00 | 58 | 1016.3 |
| 20260506210036 | 21 | 252 | 16.1 | 27.4 | 0.00 | 0.00 | 0.00 | 58 | 1016.4 |
| 20260506204505 | 21 | 276 | 12.9 | 25.7 | 0.00 | 0.00 | 0.00 | 59 | 1016.4 |
| 20260506203137 | 21 | 241 | 8.0 | 22.5 | 0.00 | 0.00 | 0.00 | 57 | 1016.5 |
| 20260506201531 | 22 | 268 | 11.3 | 24.1 | 0.00 | 0.00 | 0.00 | 56 | 1016.6 |
| 20260506200019 | 22 | 277 | 8.0 | 25.7 | 0.00 | 0.00 | 0.00 | 56 | 1016.6 |
| 20260506194555 | 21 | 317 | 11.3 | 19.3 | 0.00 | 0.00 | 0.00 | 55 | 1016.8 |
| 20260506193043 | 21 | 257 | 8.0 | 16.1 | 0.00 | 0.00 | 0.00 | 54 | 1016.9 |
| 20260506191529 | 22 | 245 | 4.8 | 14.5 | 0.00 | 0.00 | 0.00 | 53 | 1016.9 |
| 20260506190057 | 21 | 256 | 11.3 | 24.1 | 0.00 | 0.00 | 0.00 | 53 | 1017.0 |
| 20260506184553 | 21 | 21 | 6.4 | 16.1 | 0.00 | 0.00 | 0.00 | 52 | 1017.1 |
| 20260506183009 | 21 | 323 | 4.8 | 14.5 | 0.00 | 0.00 | 0.00 | 52 | 1017.3 |
| 20260506181553 | 20 | 288 | 4.8 | 17.7 | 0.00 | 0.00 | 0.00 | 54 | 1017.5 |
| 20260506180009 | 20 | 219 | 3.2 | 17.7 | 0.00 | 0.00 | 0.00 | 55 | 1017.7 |
| 20260506174531 | 19 | 299 | 3.2 | 16.1 | 0.00 | 0.00 | 0.00 | 57 | 1017.9 |
| 20260506173100 | 18 | 243 | 4.8 | 17.7 | 0.00 | 0.00 | 0.00 | 59 | 1017.8 |
| 20260506173001 | 18 | 246 | 6.4 | 17.7 | 0.00 | 0.00 | 0.00 | 59 | 1018.0 |
| 20260506171521 | 18 | 348 | 3.2 | 9.7 | 0.00 | 0.00 | 0.00 | 61 | 1018.0 |
| 20260506170021 | 17 | 288 | 4.8 | 14.5 | 0.00 | 0.00 | 0.00 | 65 | 1018.1 |
| 20260506164552 | 17 | 269 | 4.8 | 12.9 | 0.00 | 0.00 | 0.00 | 65 | 1018.0 |
| 20260506163019 | 17 | 39 | 4.8 | 12.9 | 0.00 | 0.00 | 0.00 | 66 | 1018.1 |
| 20260506161531 | 16 | 355 | 4.8 | 11.3 | 0.00 | 0.00 | 0.00 | 66 | 1018.1 |
| 20260506160031 | 16 | 360 | 0.0 | 8.0 | 0.00 | 0.00 | 0.00 | 67 | 1018.2 |
| 20260506154555 | 16 | 70 | 4.8 | 9.7 | 0.00 | 0.00 | 0.00 | 67 | 1018.1 |
| 20260506153016 | 15 | 63 | 3.2 | 8.0 | 0.00 | 0.00 | 0.00 | 68 | 1018.2 |
| 20260506151541 | 15 | 32 | 6.4 | 9.7 | 0.00 | 0.00 | 0.00 | 69 | 1018.2 |
| 20260506150007 | 14 | 17 | 1.6 | 8.0 | 0.00 | 0.13 | 0.00 | 72 | 1018.2 |
| 20260506144525 | 13 | 49 | 4.8 | 6.4 | 0.00 | 0.13 | 0.00 | 74 | 1018.1 |
| 20260506143026 | 13 | 49 | 4.8 | 8.0 | 0.00 | 0.13 | 0.00 | 76 | 1018.0 |
| 20260506141512 | 12 | 59 | 4.8 | 9.7 | 0.00 | 0.13 | 0.00 | 78 | 1018.2 |
| 20260506140018 | 12 | 48 | 1.6 | 4.8 | 0.00 | 0.13 | 0.00 | 79 | 1018.2 |
| 20260506134516 | 11 | 40 | 3.2 | 6.4 | 0.00 | 0.13 | 0.00 | 80 | 1018.0 |
| 20260506133036 | 11 | 46 | 1.6 | 4.8 | 0.00 | 0.13 | 0.00 | 80 | 1017.9 |
| 20260506131536 | 11 | 48 | 1.6 | 6.4 | 0.00 | 0.13 | 0.00 | 79 | 1017.6 |
| 20260506130057 | 11 | 57 | 3.2 | 6.4 | 0.00 | 0.13 | 0.00 | 79 | 1017.5 |
| 20260506124520 | 11 | 40 | 1.6 | 6.4 | 0.00 | 0.13 | 0.00 | 79 | 1017.4 |
| 20260506123040 | 11 | 44 | 1.6 | 8.0 | 0.00 | 0.13 | 0.00 | 79 | 1017.3 |
| 20260506121508 | 11 | 50 | 3.2 | 8.0 | 0.00 | 0.13 | 0.00 | 80 | 1017.1 |
| 20260506120026 | 11 | 31 | 0.0 | 0.0 | 0.00 | 0.15 | 0.00 | 80 | 1017.1 |
| 20260506114510 | 12 | 30 | 0.0 | 0.0 | 0.00 | 0.15 | 0.00 | 79 | 1017.1 |
| 20260506113042 | 12 | 32 | 0.0 | 0.0 | 0.00 | 0.15 | 0.00 | 79 | 1017.1 |
| 20260506111520 | 12 | 31 | 0.0 | 0.0 | 0.00 | 0.15 | 0.00 | 80 | 1017.1 |
| 20260506110028 | 12 | 31 | 0.0 | 0.0 | 0.00 | 0.15 | 0.00 | 80 | 1017.1 |